This demonstration page uses our WeatherBlox Daily Observations layout. Learn more.

Left ArrowRight Arrow

Hourly Observations for August 18, 2022

Temp ( °F °C ) Dew Point ( °F °C ) Humidity (%) Winds ( mph kmh ) Pressure ( in mb ) Visibility ( mi km ) Precip ( " mm )
12:53 am 00:53 Partly Cloudy 77 25 63 17.2 62 62 E 10 17 29.92 1013 10 16 0.00 0.00
1:53 am 01:53 Clear 75 23.9 64 17.8 69 69 E 13 20 29.92 1013 10 16 0.00 0.00
2:53 am 02:53 Partly Cloudy 75 23.9 64 17.8 69 69 ESE 12 19 29.93 1013 10 16 0.00 0.00
3:53 am 03:53 Clear 74 23.3 66 18.9 76 76 E 8 13 29.92 1013 10 16 0.00 0.00
4:53 am 04:53 Clear 73 22.8 65 18.3 76 76 E 12 19 29.91 1013 10 16 0.00 0.00
5:53 am 05:53 Clear 73 22.8 64 17.8 73 73 E 13 20 29.91 1013 10 16 0.00 0.00
6:53 am 06:53 Clear 73 22.8 64 17.8 73 73 E 7 11 29.91 1013 10 16 0.00 0.00
7:53 am 07:53 Sunny 72 22.2 64 17.8 76 76 ENE 3 6 29.92 1013 10 16 0.00 0.00
8:53 am 08:53 Sunny 75 23.9 64 17.8 69 69 NNE 6 9 29.96 1014 10 16 0.00 0.00
9:53 am 09:53 Cloudy 79 26.1 63 17.2 58 58 E 13 20 29.97 1015 10 16 0.00 0.00
10:53 am 10:53 Mostly Cloudy 79 26.1 64 17.8 60 60 ENE 14 22 29.98 1015 10 16 0.00 0.00
11:53 am 11:53 Mostly Cloudy 81 27.2 63 17.2 54 54 ENE 13 20 29.97 1015 10 16 0.00 0.00
12:53 pm 12:53 Mostly Cloudy 82 27.8 64 17.8 55 55 ESE 8 13 29.95 1014 10 16 0.00 0.00
1:53 pm 13:53 Partly Cloudy 85 29.4 63 17.2 48 48 E 7 11 29.94 1014 10 16 0.00 0.00
2:53 pm 14:53 Sunny 86 30 61 16.1 43 43 VRB 5 7 29.91 1013 10 16 0.00 0.00
3:53 pm 15:53 Sunny 87 30.6 59 15 39 39 SE 8 13 29.88 1012 10 16 0.00 0.00
4:53 pm 16:53 Mostly Sunny 89 31.7 59 15 36 36 ESE 8 13 29.85 1011 10 16 0.00 0.00
5:53 pm 17:53 Partly Cloudy 90 32.2 58 14.4 34 34 E 10 17 29.84 1010 10 16 0.00 0.00
6:53 pm 18:53 Sunny 89 31.7 58 14.4 35 35 NE 9 15 29.83 1010 10 16 0.00 0.00
7:53 pm 19:53 Sunny 88 31.1 59 15 38 38 E 10 17 29.83 1010 10 16 0.00 0.00
8:53 pm 20:53 Mostly Clear 85 29.4 60 15.6 43 43 ENE 9 15 29.85 1011 10 16 0.00 0.00
9:53 pm 21:53 Mostly Cloudy 83 28.3 62 16.7 49 49 ESE 9 15 29.89 1012 10 16 0.00 0.00
10:53 pm 22:53 Clear 79 26.1 65 18.3 62 62 S 9 15 29.91 1013 10 16 0.00 0.00
11:53 pm 23:53 Clear 77 25 66 18.9 69 69 SSE 3 6 29.91 1013 10 16 0.00 0.00

Powered by AerisWeather